Location: Rounton
(54.4000°N, 1.3500°W)
Time: 08:41:46
(UTC+01:00)

FALCONSAT-6 - Visible Passes

Search period start: 26 June 2022 00:00
Search period end: 06 July 2022 00:00
Orbit: 557 x 586 km, 97.6° (Epoch: 25 June)

Date Brightness Start Highest point End Pass type
(mag) Time Alt. Az. Time Alt. Az. Time Alt. Az.
26 Jun ? 22:55:50 10° S 22:59:50 46° W 23:03:52 10° NNW visible
27 Jun ? 22:58:11 10° S 23:02:10 43° W 23:06:10 10° NNW visible
28 Jun ? 23:00:33 10° S 23:04:30 41° W 23:08:28 10° NNW visible
29 Jun ? 23:02:54 10° SSW 23:06:49 39° W 23:10:46 10° NNW visible
30 Jun ? 23:05:17 10° SSW 23:09:09 38° W 23:13:03 10° NNW visible
01 Jul ? 23:07:39 10° SSW 23:11:29 36° W 23:15:21 10° NNW visible
02 Jul ? 23:10:01 10° SSW 23:13:49 34° W 23:17:38 10° NNW visible
03 Jul ? 23:12:23 10° SSW 23:16:09 33° W 23:19:55 10° NNW visible
04 Jul ? 23:14:46 10° SSW 23:18:29 31° W 23:22:12 10° NNW visible
05 Jul ? 23:17:09 10° SSW 23:20:49 30° W 23:24:29 10° NNW visible
